This is the latest recevied weather packets stored in our database for station/object CE3MXM-13. If no packets are shown the sender has not sent any weather packets the latest 1 day(s).
| Time | Temp. | Humidity | Pressure | Rain* | Wind** | Luminosity | Snow |
|---|---|---|---|---|---|---|---|
| 1778088335 | 13.33° C | 98% | 1013.9 hPa | - | - | - | - |
| 1778088035 | 13.33° C | 98% | 1013.9 hPa | - | - | - | - |
| 1778087735 | 13.33° C | 98% | 1013.8 hPa | - | - | - | - |
| 1778087135 | 12.78° C | 98% | 1013.7 hPa | - | - | - | - |
| 1778085634 | 12.78° C | 98% | 1013.7 hPa | - | - | - | - |
| 1778085334 | 12.78° C | 98% | 1013.5 hPa | - | - | - | - |
| 1778084734 | 12.78° C | 98% | 1013.7 hPa | - | - | - | - |
| 1778082333 | 12.78° C | 95% | 1012.8 hPa | - | - | - | - |
| 1778082033 | 12.78° C | 94% | 1013.2 hPa | - | - | - | - |
| 1778081733 | 13.33° C | 94% | 1013 hPa | - | - | - | - |
| 1778079632 | 14.44° C | 82% | 1013 hPa | - | - | - | - |
| 1778079032 | 14.44° C | 82% | 1012.6 hPa | - | - | - | - |
| 1778078732 | 15° C | 81% | 1012.6 hPa | - | - | - | - |
| 1778076631 | 13.89° C | 94% | 1011.6 hPa | - | - | - | - |
| 1778076331 | 13.33° C | 93% | 1011.6 hPa | - | - | - | - |
| 1778076032 | 13.33° C | 94% | 1011.8 hPa | - | - | - | - |
| 1778073630 | 13.33° C | 99% | 1012.3 hPa | - | - | - | - |
| 1778073330 | 12.78° C | 99% | 1012.2 hPa | - | - | - | - |
| 1778072130 | 11.11° C | 99% | 1012.1 hPa | - | - | - | - |
| 1778071530 | 9.44° C | 99% | 1012.4 hPa | - | - | - | - |
| 1778069729 | 7.78° C | 98% | 1012.2 hPa | - | - | - | - |
| 1778069129 | 7.22° C | 98% | 1012.1 hPa | - | - | - | - |
| 1778067028 | 6.67° C | 98% | 1012.2 hPa | - | - | - | - |
| 1778066728 | 6.67° C | 98% | 1011.9 hPa | - | - | - | - |
| 1778066128 | 6.67° C | 98% | 1011.7 hPa | - | - | - | - |
* Rain since midnight (hover to see other rain measurements)
** Current wind speed in m/s (hover to see current wind gust speed)